Location: Friedrichshafen
(47.6598°N, 9.4819°E)
Time: 12:59:38
(UTC+02:00)

OTV 5 (USA 277) - Visible Passes

Search period start: 15 October 2018 00:00
Search period end: 25 October 2018 00:00
Orbit: 387 x 394 km, 54.5° (Epoch: 08 September)

Date Brightness Start Highest point End Pass type
(mag) Time Alt. Az. Time Alt. Az. Time Alt. Az.
15 Oct ? 05:19:58 33° ENE 05:19:58 33° ENE 05:22:02 10° ESE visible
15 Oct ? 06:52:23 13° W 06:54:43 27° SW 06:57:28 10° SSE visible
16 Oct ? 05:58:34 54° SSW 05:58:34 54° SSW 06:01:35 10° SE visible
17 Oct ? 05:04:52 13° ESE 05:04:52 13° ESE 05:05:16 10° ESE visible
17 Oct ? 06:37:18 16° SW 06:37:37 16° SW 06:39:39 10° S visible
18 Oct ? 05:43:44 14° SSE 05:43:44 14° SSE 05:44:18 10° SSE visible
24 Oct ? 19:51:05 10° S 19:52:44 19° SSE 19:52:44 19° SSE visible
